Time,TemperatureF,DewpointF,PressureIn,WindDirection,WindDirectionDegrees,WindSpeedMPH,WindSpeedGustMPH,Humidity,HourlyPrecipIn,Conditions,Clouds,dailyrainin,SolarRadiationWatts/m^2,SoftwareType,DateUTC
2015-03-29 00:04:00,30.6,20.2,30.22,SSE,157,1.0,15.0,65,0.00,,,0.00,0,Wunderground v.1.15,2015-03-29 05:04:00,
2015-03-29 00:09:00,30.5,20.5,30.22,SSE,156,1.0,15.0,66,0.00,,,0.00,0,Wunderground v.1.15,2015-03-29 05:09:00,
2015-03-29 00:14:00,30.4,20.4,30.22,SSE,156,1.0,15.0,66,0.00,,,0.00,0,Wunderground v.1.15,2015-03-29 05:14:00,
2015-03-29 00:19:00,30.3,19.9,30.22,SSE,158,0.0,15.0,65,0.00,,,0.00,0,Wunderground v.1.15,2015-03-29 05:19:00,
2015-03-29 00:24:00,30.3,19.9,30.22,SE,134,1.0,15.0,65,0.00,,,0.00,0,Wunderground v.1.15,2015-03-29 05:24:00,
2015-03-29 00:29:00,30.4,20.0,30.21,South,186,1.0,15.0,65,0.00,,,0.00,0,Wunderground v.1.15,2015-03-29 05:29:00,
2015-03-29 00:34:00,30.4,20.0,30.22,SSE,150,1.0,15.0,65,0.00,,,0.00,0,Wunderground v.1.15,2015-03-29 05:34:00,
2015-03-29 00:39:00,30.4,20.4,30.21,SSE,168,1.0,15.0,66,0.00,,,0.00,0,Wunderground v.1.15,2015-03-29 05:39:00,
2015-03-29 00:44:00,30.5,20.5,30.21,South,175,2.0,15.0,66,0.00,,,0.00,0,Wunderground v.1.15,2015-03-29 05:44:00,
2015-03-29 00:49:00,30.5,20.5,30.21,SE,146,2.0,15.0,66,0.00,,,0.00,0,Wunderground v.1.15,2015-03-29 05:49:00,
2015-03-29 00:54:00,30.6,20.2,30.20,SSE,166,2.0,15.0,65,0.00,,,0.00,0,Wunderground v.1.15,2015-03-29 05:54:00,
2015-03-29 00:59:00,30.7,20.3,30.20,SSE,166,2.0,15.0,65,0.00,,,0.00,0,Wunderground v.1.15,2015-03-29 05:59:00,
2015-03-29 01:04:00,30.9,19.8,30.20,SSE,150,2.0,15.0,63,0.00,,,0.00,0,Wunderground v.1.15,2015-03-29 06:04:00,
2015-03-29 01:09:00,31.1,19.6,30.19,South,175,2.0,15.0,62,0.00,,,0.00,0,Wunderground v.1.15,2015-03-29 06:09:00,
2015-03-29 01:14:00,31.1,20.0,30.18,SSW,198,2.0,15.0,63,0.00,,,0.00,0,Wunderground v.1.15,2015-03-29 06:14:00,
2015-03-29 01:19:00,31.1,19.6,30.18,SSE,155,2.0,15.0,62,0.00,,,0.00,0,Wunderground v.1.15,2015-03-29 06:19:00,
2015-03-29 01:24:00,31.1,19.6,30.18,ESE,115,2.0,15.0,62,0.00,,,0.00,0,Wunderground v.1.15,2015-03-29 06:24:00,
2015-03-29 01:29:00,31.1,19.6,30.18,South,188,2.0,15.0,62,0.00,,,0.00,0,Wunderground v.1.15,2015-03-29 06:29:00,
2015-03-29 01:34:00,31.1,19.6,30.18,SSE,161,3.0,15.0,62,0.00,,,0.00,0,Wunderground v.1.15,2015-03-29 06:34:00,
2015-03-29 01:39:00,31.0,19.5,30.18,SSW,192,3.0,15.0,62,0.00,,,0.00,0,Wunderground v.1.15,2015-03-29 06:39:00,
2015-03-29 01:44:00,30.9,19.4,30.18,SSE,155,3.0,15.0,62,0.00,,,0.00,0,Wunderground v.1.15,2015-03-29 06:44:00,
2015-03-29 01:49:00,30.8,19.3,30.17,ESE,123,3.0,15.0,62,0.00,,,0.00,0,Wunderground v.1.15,2015-03-29 06:49:00,
2015-03-29 01:54:00,30.7,19.6,30.17,West,273,3.0,15.0,63,0.00,,,0.00,0,Wunderground v.1.15,2015-03-29 06:54:00,
2015-03-29 01:59:00,30.5,19.4,30.17,South,182,2.0,15.0,63,0.00,,,0.00,0,Wunderground v.1.15,2015-03-29 06:59:00,
2015-03-29 02:04:00,30.5,19.4,30.17,South,186,2.0,15.0,63,0.00,,,0.00,0,Wunderground v.1.15,2015-03-29 07:04:00,
2015-03-29 02:09:00,30.5,19.4,30.15,South,180,2.0,15.0,63,0.00,,,0.00,0,Wunderground v.1.15,2015-03-29 07:09:00,
2015-03-29 02:14:00,30.6,19.5,30.15,SSW,198,2.0,15.0,63,0.00,,,0.00,0,Wunderground v.1.15,2015-03-29 07:14:00,
2015-03-29 02:19:00,30.7,19.6,30.15,West,259,2.0,15.0,63,0.00,,,0.00,0,Wunderground v.1.15,2015-03-29 07:19:00,
2015-03-29 02:24:00,30.8,19.7,30.14,SSW,200,3.0,15.0,63,0.00,,,0.00,0,Wunderground v.1.15,2015-03-29 07:24:00,
2015-03-29 02:29:00,30.9,19.8,30.14,South,179,3.0,15.0,63,0.00,,,0.00,0,Wunderground v.1.15,2015-03-29 07:29:00,
2015-03-29 02:34:00,31.0,19.9,30.14,SSE,163,3.0,15.0,63,0.00,,,0.00,0,Wunderground v.1.15,2015-03-29 07:34:00,
2015-03-29 02:39:00,31.2,20.1,30.14,SSE,158,3.0,15.0,63,0.00,,,0.00,0,Wunderground v.1.15,2015-03-29 07:39:00,
2015-03-29 02:44:00,31.3,20.2,30.14,SSE,153,2.0,15.0,63,0.00,,,0.00,0,Wunderground v.1.15,2015-03-29 07:44:00,
2015-03-29 02:49:00,31.2,20.1,30.14,West,259,2.0,15.0,63,0.00,,,0.00,0,Wunderground v.1.15,2015-03-29 07:49:00,
2015-03-29 02:54:00,31.2,20.1,30.13,SSE,147,3.0,15.0,63,0.00,,,0.00,0,Wunderground v.1.15,2015-03-29 07:54:00,
2015-03-29 02:59:00,31.2,20.1,30.12,SE,144,3.0,15.0,63,0.00,,,0.00,0,Wunderground v.1.15,2015-03-29 07:59:00,
2015-03-29 03:04:00,31.2,20.1,30.13,WSW,241,3.0,15.0,63,0.00,,,0.00,0,Wunderground v.1.15,2015-03-29 08:04:00,
2015-03-29 03:09:00,31.3,20.2,30.13,SSE,159,2.0,15.0,63,0.00,,,0.00,0,Wunderground v.1.15,2015-03-29 08:09:00,
2015-03-29 03:14:00,31.2,20.1,30.13,SSE,156,3.0,15.0,63,0.00,,,0.00,0,Wunderground v.1.15,2015-03-29 08:14:00,
2015-03-29 03:19:00,31.1,20.0,30.12,SE,146,3.0,15.0,63,0.00,,,0.00,0,Wunderground v.1.15,2015-03-29 08:19:00,
2015-03-29 03:24:00,31.1,20.3,30.11,SSE,165,3.0,15.0,64,0.00,,,0.00,0,Wunderground v.1.15,2015-03-29 08:24:00,
2015-03-29 03:29:00,31.1,20.3,30.11,SSE,155,3.0,15.0,64,0.00,,,0.00,0,Wunderground v.1.15,2015-03-29 08:29:00,
2015-03-29 03:34:00,31.1,20.3,30.11,SW,217,4.0,15.0,64,0.00,,,0.00,0,Wunderground v.1.15,2015-03-29 08:34:00,
2015-03-29 03:39:00,31.1,20.3,30.11,SW,223,3.0,15.0,64,0.00,,,0.00,0,Wunderground v.1.15,2015-03-29 08:39:00,
2015-03-29 03:44:00,31.2,20.4,30.11,South,176,3.0,15.0,64,0.00,,,0.00,0,Wunderground v.1.15,2015-03-29 08:44:00,
2015-03-29 03:49:00,31.2,20.8,30.11,ESE,119,3.0,15.0,65,0.00,,,0.00,0,Wunderground v.1.15,2015-03-29 08:49:00,
2015-03-29 03:54:00,31.1,20.7,30.11,SW,234,3.0,15.0,65,0.00,,,0.00,0,Wunderground v.1.15,2015-03-29 08:54:00,
2015-03-29 03:59:00,31.0,20.6,30.11,SSW,208,3.0,15.0,65,0.00,,,0.00,0,Wunderground v.1.15,2015-03-29 08:59:00,
2015-03-29 04:04:00,31.0,20.6,30.11,SSW,207,2.0,15.0,65,0.00,,,0.00,0,Wunderground v.1.15,2015-03-29 09:04:00,
2015-03-29 04:09:00,30.9,20.5,30.10,SSW,192,2.0,15.0,65,0.00,,,0.00,0,Wunderground v.1.15,2015-03-29 09:09:00,
2015-03-29 04:14:00,31.0,20.6,30.10,ESE,120,3.0,15.0,65,0.00,,,0.00,0,Wunderground v.1.15,2015-03-29 09:14:00,
2015-03-29 04:19:00,31.0,21.0,30.10,SW,220,3.0,15.0,66,0.00,,,0.00,0,Wunderground v.1.15,2015-03-29 09:19:00,
2015-03-29 04:24:00,31.0,20.6,30.09,SW,230,3.0,15.0,65,0.00,,,0.00,0,Wunderground v.1.15,2015-03-29 09:24:00,
2015-03-29 04:29:00,31.0,21.0,30.08,SW,227,3.0,15.0,66,0.00,,,0.00,0,Wunderground v.1.15,2015-03-29 09:29:00,
2015-03-29 04:34:00,31.0,21.0,30.08,SSW,213,3.0,15.0,66,0.00,,,0.00,0,Wunderground v.1.15,2015-03-29 09:34:00,
2015-03-29 04:39:00,31.0,21.0,30.08,SW,223,3.0,15.0,66,0.00,,,0.00,0,Wunderground v.1.15,2015-03-29 09:39:00,
2015-03-29 04:44:00,30.9,21.2,30.08,South,190,3.0,15.0,67,0.00,,,0.00,0,Wunderground v.1.15,2015-03-29 09:44:00,
2015-03-29 04:49:00,30.8,21.1,30.07,WSW,242,3.0,15.0,67,0.00,,,0.00,0,Wunderground v.1.15,2015-03-29 09:49:00,
2015-03-29 04:54:00,30.7,21.4,30.07,SW,228,3.0,15.0,68,0.00,,,0.00,0,Wunderground v.1.15,2015-03-29 09:54:00,
2015-03-29 04:59:00,30.6,21.3,30.07,West,267,3.0,15.0,68,0.00,,,0.00,0,Wunderground v.1.15,2015-03-29 09:59:00,
2015-03-29 05:04:00,30.6,20.9,30.08,SW,227,3.0,15.0,67,0.00,,,0.00,0,Wunderground v.1.15,2015-03-29 10:04:00,
2015-03-29 05:09:00,30.6,21.3,30.08,West,265,2.0,15.0,68,0.00,,,0.00,0,Wunderground v.1.15,2015-03-29 10:09:00,
2015-03-29 05:14:00,30.5,21.2,30.07,WSW,244,2.0,15.0,68,0.00,,,0.00,0,Wunderground v.1.15,2015-03-29 10:14:00,